Weather in Greenock

United Kingdom     55°56′45″N   4°45′37″W
temp.,
°C
wind,
m/s
gust,
m/s
humid.,
%
clouds,
%
prec.,
mm/h
press.,
hPa
HPBL,
m
8 march, mon
mon800:00+3ssw1299100 2.1 102244
03:00+4sw1399100 2.3 102096
06:00+5wsw2998100 2.6 1020348
09:00+6w31197100 2.8 1020695
12:00+7wsw3892100 4.1 1019608
15:00+7wsw2392100 0.1 1019306
18:00+5ssw119793 0.3 101836
21:00+5s1199100 0.5 101845
9 march, tue
tue900:00+5sse139994 0.6 1017148
03:00+5s2499100 0.3 1016221
06:00+5sse2499100 0.8 1015197
09:00+5s2599100 0.3 1014277
12:00+6s4993100 0.4 1012691
15:00+7s51190100 0.1 1009953
18:00+7s71593100 0.7 10041131
21:00+6s102093100 6.2 9991315
10 march, wed
wed1000:00+7ssw112094100 14.1 9971279
03:00+4w71486100 3.3 9971220
06:00+2sw5128373 3.4 999847
09:00+4sw6118367 0.1 9991178
12:00+5sw697675 0.2 9991092
15:00+2s5119687 1.4 994667
18:00+2e289993 10.3 986432
21:00+8ssw7219398 6.1 9801763
11 march, thu
thu1100:00+5ssw7188991 6.9 9771385
03:00+5ssw91893100 0.9 9701356
06:00+7sw112191100 4.8 9671486
09:00+4w111990100 1.2 9741388
12:00+4w91691100 2.9 9811450
15:00+5w9177099 0.8 9832121
18:00+3w8187993 1.3 9861731
21:00+3wsw81782100 0.6 9891610
12 march, fri
fri1200:00+3wsw71586100 1.3 9901295
03:00+3wsw61387100 0.9 9901193
06:00+2wsw61295100 2.4 991959
09:00+4wsw61185100 0.6 9921121
12:00+5wsw6107897 1.4 9931314
15:00+5w81378100 1.2 9931463
18:00+3wsw5118399 1.8 9941039
21:00+3sw4119378 0.3 993800